Santa Fe, NM

1:38 AM MDT on July 25, 2017 (GMT -0600)
Santa Fe Municipal

Weather History for KSAF - November, 2013

Change the Weather History Date:

Tuesday, November 19, 2013

  Actual Average Record
Temperature  
Mean Temperature 42 °F -  
Max Temperature 55 °F 58 °F 69 °F (2007)
Min Temperature 30 °F 23 °F 17 °F (2000)
Degree Days  
Heating Degree Days 22    
Moisture  
Dew Point 30 °F    
Average Humidity 66    
Maximum Humidity 82    
Minimum Humidity 45    
Precipitation  
Precipitation 0.00 in - - ()
Sea Level Pressure  
Sea Level Pressure 29.96 in    
Wind  
Wind Speed 9 mph (North)    
Max Wind Speed 15 mph    
Max Gust Speed -    
Visibility 10 miles    
Events      
Averages and records for this station are not official NWS values.
T = Trace of Precipitation, MM = Missing Value Source: NWS Daily Summary

Daily Weather History Graph

Daily Weather History Graph

Search for Another Location

Airport or City:

Trip Planner

Search our weather history database for the weather conditions in past years. The results will help you decide how hot, cold, wet, or windy it might be!

Date:

Astronomy

Nov. 19, 2013 Rise Set
Actual Time 6:44 AM MST 4:55 PM MST
Civil Twilight 6:16 AM MST 5:22 PM MST
Nautical Twilight 5:45 AM MST 5:53 PM MST
Astronomical Twilight 5:15 AM MST 6:23 PM MST
Moon 6:49 PM MST (11/19) 8:25 AM MST (11/19)
Length of Visible Light 11h 05m
Length of Day
10h 10m
Waning Gibbous, 96% of the Moon is Illuminated
Nov 19
Waning Gibbous
Nov 25
Last Quarter
Dec 2
New
Dec 9
First Quarter
Dec 17
Full

Hourly Weather History & Observations

Time (MST) Temp. Windchill Dew Point Humidity Pressure Visibility Wind Dir Wind Speed Gust Speed Precip Events Conditions
12:53 AM 33.1 °F 26.1 °F 28.0 °F 82% 30.09 in 10.0 mi North 8.1 mph - N/A   Clear
1:53 AM 33.1 °F 25.5 °F 28.0 °F 82% 30.08 in 10.0 mi North 9.2 mph - N/A   Clear
2:53 AM 32.0 °F 23.6 °F 27.0 °F 82% 30.06 in 10.0 mi North 10.4 mph - N/A   Clear
3:53 AM 32.0 °F 22.5 °F 27.0 °F 82% 30.05 in 10.0 mi North 12.7 mph - N/A   Clear
4:53 AM 33.1 °F 23.9 °F 26.1 °F 75% 30.05 in 10.0 mi North 12.7 mph - N/A   Clear
5:53 AM 30.9 °F 20.2 °F 25.0 °F 79% 30.07 in 10.0 mi North 15.0 mph - N/A   Clear
6:53 AM 30.0 °F 20.5 °F 25.0 °F 82% 30.10 in 10.0 mi North 11.5 mph - N/A   Clear
7:53 AM 35.1 °F 28.6 °F 26.1 °F 70% 30.09 in 10.0 mi North 8.1 mph - N/A   Clear
8:53 AM 39.0 °F 32.8 °F 27.0 °F 62% 30.08 in 10.0 mi North 9.2 mph - N/A   Clear
9:53 AM 43.0 °F 38.2 °F 28.0 °F 56% 30.06 in 10.0 mi North 8.1 mph - N/A   Clear
10:53 AM 48.0 °F - 32.0 °F 54% 30.01 in 10.0 mi Calm Calm - N/A   Clear
11:53 AM 51.1 °F - 34.0 °F 52% 29.94 in 10.0 mi SSW 8.1 mph - N/A   Clear
12:53 PM 51.1 °F - 33.1 °F 50% 29.90 in 10.0 mi SW 4.6 mph - N/A   Clear
1:53 PM 54.0 °F - 35.1 °F 49% 29.86 in 10.0 mi SW 11.5 mph - N/A   Clear
2:53 PM 55.0 °F - 34.0 °F 45% 29.84 in 10.0 mi SW 13.8 mph - N/A   Clear
3:53 PM 54.0 °F - 34.0 °F 47% 29.84 in 10.0 mi SSW 8.1 mph - N/A   Clear
4:53 PM 48.9 °F - 34.0 °F 56% 29.86 in 10.0 mi SSW 4.6 mph - N/A   Clear
5:53 PM 45.0 °F 43.5 °F 33.1 °F 63% 29.91 in 10.0 mi NW 3.5 mph - N/A   Clear
6:53 PM 43.0 °F 40.3 °F 33.1 °F 68% 29.91 in 10.0 mi NNW 4.6 mph - N/A   Clear
7:53 PM 43.0 °F 39.5 °F 32.0 °F 65% 29.89 in 10.0 mi North 5.8 mph - N/A   Clear
8:53 PM 44.1 °F 40.1 °F 33.1 °F 65% 29.86 in 10.0 mi NNE 6.9 mph - N/A   Clear
9:53 PM 42.1 °F 39.2 °F 33.1 °F 70% 29.85 in 10.0 mi ENE 4.6 mph - N/A   Clear
10:53 PM 42.1 °F 40.2 °F 32.0 °F 67% 29.82 in 10.0 mi North 3.5 mph - N/A   Clear
11:53 PM 39.9 °F - 30.9 °F 70% 29.81 in 10.0 mi Calm Calm - N/A   Clear